Time,TemperatureF,DewpointF,PressureIn,WindDirection,WindDirectionDegrees,WindSpeedMPH,WindSpeedGustMPH,Humidity,HourlyPrecipIn,Conditions,Clouds,dailyrainin,SolarRadiationWatts/m^2,SoftwareType,DateUTC
2013-07-18 00:02:00,78.0,75.0,-100.00,SW,232,4.0,9.0,91,0.00,,,0.00,0.000000,,2013-07-18 04:02:00,
2013-07-18 00:12:00,78.0,75.0,-100.00,SW,232,4.0,9.0,91,0.00,,,0.00,0.000000,,2013-07-18 04:12:00,
2013-07-18 00:22:00,78.0,75.0,-100.00,SW,232,4.0,9.0,91,0.00,,,0.00,0.000000,,2013-07-18 04:22:00,
2013-07-18 00:52:00,77.0,75.0,-100.00,SSW,206,2.0,8.0,93,0.00,,,0.00,0.000000,,2013-07-18 04:52:00,
2013-07-18 01:02:00,77.0,75.0,-100.00,SSW,206,2.0,8.0,93,0.00,,,0.00,0.000000,,2013-07-18 05:02:00,
2013-07-18 01:11:00,77.0,75.0,-100.00,SSW,206,2.0,8.0,93,0.00,,,0.00,0.000000,,2013-07-18 05:11:00,
2013-07-18 01:22:00,77.0,75.0,-100.00,SSW,206,2.0,8.0,93,0.00,,,0.00,0.000000,,2013-07-18 05:22:00,
2013-07-18 01:52:00,77.0,75.0,-100.00,SW,229,4.0,8.0,93,0.00,,,0.00,0.000000,,2013-07-18 05:52:00,
2013-07-18 02:01:00,77.0,75.0,-100.00,SW,229,4.0,8.0,93,0.00,,,0.00,0.000000,,2013-07-18 06:01:00,
2013-07-18 02:12:00,77.0,75.0,-100.00,SW,229,4.0,8.0,93,0.00,,,0.00,0.000000,,2013-07-18 06:12:00,
2013-07-18 02:22:00,77.0,75.0,-100.00,SW,229,4.0,8.0,93,0.00,,,0.00,0.000000,,2013-07-18 06:22:00,
2013-07-18 02:52:00,76.0,74.0,-100.00,SW,228,5.0,9.0,95,0.00,,,0.00,0.000000,,2013-07-18 06:52:00,
2013-07-18 03:01:00,76.0,74.0,-100.00,SW,228,5.0,9.0,95,0.00,,,0.00,0.000000,,2013-07-18 07:01:00,
2013-07-18 03:12:00,76.0,74.0,-100.00,SW,228,5.0,9.0,95,0.00,,,0.00,0.000000,,2013-07-18 07:12:00,
2013-07-18 03:22:00,76.0,74.0,-100.00,SW,228,5.0,9.0,95,0.00,,,0.00,0.000000,,2013-07-18 07:22:00,
2013-07-18 06:01:00,75.0,74.0,-100.00,SW,230,4.0,9.0,97,-99.99,,,0.00,0.000000,,2013-07-18 10:01:00,
2013-07-18 06:11:00,75.0,74.0,-100.00,SW,230,4.0,9.0,97,-99.99,,,0.00,0.000000,,2013-07-18 10:11:00,
2013-07-18 06:22:00,75.0,74.0,-100.00,SW,230,4.0,9.0,97,-99.99,,,0.00,0.000000,,2013-07-18 10:22:00,
2013-07-18 08:52:00,81.0,76.0,-100.00,SW,236,8.0,13.0,84,-99.99,,,0.00,216.000000,,2013-07-18 12:52:00,
2013-07-18 09:01:00,81.0,76.0,-100.00,SW,236,8.0,13.0,84,-99.99,,,0.00,216.000000,,2013-07-18 13:01:00,
2013-07-18 09:11:00,81.0,76.0,-100.00,SW,236,8.0,13.0,84,-99.99,,,0.00,216.000000,,2013-07-18 13:11:00,
2013-07-18 09:22:00,81.0,76.0,-100.00,SW,236,8.0,13.0,84,-99.99,,,0.00,216.000000,,2013-07-18 13:22:00,
2013-07-18 09:53:00,81.0,76.0,-100.00,West,266,6.0,14.0,84,0.00,,,0.00,340.000000,,2013-07-18 13:53:00,
2013-07-18 10:02:00,81.0,76.0,-100.00,West,266,6.0,14.0,84,0.00,,,0.00,340.000000,,2013-07-18 14:02:00,
2013-07-18 10:12:00,81.0,76.0,-100.00,West,266,6.0,14.0,84,0.00,,,0.00,340.000000,,2013-07-18 14:12:00,
2013-07-18 10:22:00,81.0,76.0,-100.00,West,266,6.0,14.0,84,0.00,,,0.00,340.000000,,2013-07-18 14:22:00,
2013-07-18 10:53:00,82.0,76.0,-100.00,WSW,246,7.0,11.0,81,0.00,,,0.00,239.000000,,2013-07-18 14:53:00,
2013-07-18 11:01:00,82.0,76.0,-100.00,WSW,246,7.0,11.0,81,0.00,,,0.00,239.000000,,2013-07-18 15:01:00,
2013-07-18 11:11:00,82.0,76.0,-100.00,WSW,246,7.0,11.0,81,0.00,,,0.00,239.000000,,2013-07-18 15:11:00,
2013-07-18 11:22:00,82.0,76.0,-100.00,WSW,246,7.0,11.0,81,0.00,,,0.00,239.000000,,2013-07-18 15:22:00,
2013-07-18 12:01:00,87.0,77.0,-100.00,WSW,250,6.0,11.0,73,0.00,,,0.00,506.000000,,2013-07-18 16:01:00,
2013-07-18 12:12:00,87.0,77.0,-100.00,WSW,250,6.0,11.0,73,0.00,,,0.00,506.000000,,2013-07-18 16:12:00,
2013-07-18 12:22:00,87.0,77.0,-100.00,WSW,250,6.0,11.0,73,0.00,,,0.00,506.000000,,2013-07-18 16:22:00,
2013-07-18 12:52:00,87.0,76.0,-100.00,WSW,244,7.0,13.0,70,0.01,,,0.01,695.000000,,2013-07-18 16:52:00,
2013-07-18 13:02:00,87.0,76.0,-100.00,WSW,244,7.0,13.0,70,0.01,,,0.01,695.000000,,2013-07-18 17:02:00,
2013-07-18 13:11:00,87.0,76.0,-100.00,WSW,244,7.0,13.0,70,0.01,,,0.01,695.000000,,2013-07-18 17:11:00,
2013-07-18 13:22:00,87.0,76.0,-100.00,WSW,244,7.0,13.0,70,0.01,,,0.01,695.000000,,2013-07-18 17:22:00,
2013-07-18 14:01:00,84.0,79.0,-100.00,WSW,252,4.0,10.0,84,0.03,,,0.04,279.000000,,2013-07-18 18:01:00,
2013-07-18 14:12:00,84.0,79.0,-100.00,WSW,252,4.0,10.0,84,0.03,,,0.04,279.000000,,2013-07-18 18:12:00,
2013-07-18 14:22:00,84.0,79.0,-100.00,WSW,252,4.0,10.0,84,0.03,,,0.04,279.000000,,2013-07-18 18:22:00,
2013-07-18 14:52:00,85.0,78.0,-100.00,WSW,251,3.0,11.0,81,0.00,,,0.04,514.000000,,2013-07-18 18:52:00,
2013-07-18 15:02:00,85.0,78.0,-100.00,WSW,251,3.0,11.0,81,0.00,,,0.04,514.000000,,2013-07-18 19:02:00,
2013-07-18 15:11:00,85.0,78.0,-100.00,WSW,251,3.0,11.0,81,0.00,,,0.04,514.000000,,2013-07-18 19:11:00,
2013-07-18 15:22:00,85.0,78.0,-100.00,WSW,251,3.0,11.0,81,0.00,,,0.04,514.000000,,2013-07-18 19:22:00,
2013-07-18 16:52:00,82.0,75.0,-100.00,West,261,5.0,7.0,80,-99.99,,,0.28,309.000000,,2013-07-18 20:52:00,
2013-07-18 17:01:00,82.0,75.0,-100.00,West,261,5.0,7.0,80,-99.99,,,0.28,309.000000,,2013-07-18 21:01:00,
2013-07-18 17:11:00,82.0,75.0,-100.00,West,261,5.0,7.0,80,-99.99,,,0.28,309.000000,,2013-07-18 21:11:00,
2013-07-18 17:22:00,82.0,75.0,-100.00,West,261,5.0,7.0,80,-99.99,,,0.28,309.000000,,2013-07-18 21:22:00,
2013-07-18 17:52:00,86.0,77.0,-100.00,SW,220,4.0,6.0,74,0.00,,,0.28,321.000000,,2013-07-18 21:52:00,
2013-07-18 18:01:00,86.0,77.0,-100.00,SW,220,4.0,6.0,74,0.00,,,0.28,321.000000,,2013-07-18 22:01:00,
2013-07-18 18:11:00,86.0,77.0,-100.00,SW,220,4.0,6.0,74,0.00,,,0.28,321.000000,,2013-07-18 22:11:00,
2013-07-18 18:22:00,86.0,77.0,-100.00,SW,220,4.0,6.0,74,0.00,,,0.28,321.000000,,2013-07-18 22:22:00,
2013-07-18 18:53:00,87.0,74.0,-100.00,SW,227,7.0,12.0,65,0.00,,,0.28,387.000000,,2013-07-18 22:53:00,
2013-07-18 19:02:00,87.0,74.0,-100.00,SW,227,7.0,12.0,65,0.00,,,0.28,387.000000,,2013-07-18 23:02:00,
2013-07-18 19:11:00,87.0,74.0,-100.00,SW,227,7.0,12.0,65,0.00,,,0.28,387.000000,,2013-07-18 23:11:00,
2013-07-18 19:22:00,87.0,74.0,-100.00,SW,227,7.0,12.0,65,0.00,,,0.28,387.000000,,2013-07-18 23:22:00,
2013-07-18 19:52:00,84.0,72.0,-100.00,SW,234,7.0,13.0,67,0.00,,,-99.99,210.000000,,2013-07-18 23:52:00,
2013-07-18 20:01:00,84.0,72.0,-100.00,SW,234,7.0,13.0,67,0.00,,,-99.99,210.000000,,2013-07-19 00:01:00,
2013-07-18 20:11:00,84.0,72.0,-100.00,SW,234,7.0,13.0,67,0.00,,,-99.99,210.000000,,2013-07-19 00:11:00,
2013-07-18 20:22:00,84.0,72.0,-100.00,SW,234,7.0,13.0,67,0.00,,,-99.99,210.000000,,2013-07-19 00:22:00,
2013-07-18 20:52:00,81.0,71.0,-100.00,WSW,238,8.0,16.0,71,0.00,,,0.28,47.000000,,2013-07-19 00:52:00,
2013-07-18 21:01:00,81.0,71.0,-100.00,WSW,238,8.0,16.0,71,0.00,,,0.28,47.000000,,2013-07-19 01:01:00,
2013-07-18 21:11:00,81.0,71.0,-100.00,WSW,238,8.0,16.0,71,0.00,,,0.28,47.000000,,2013-07-19 01:11:00,
2013-07-18 21:22:00,81.0,71.0,-100.00,WSW,238,8.0,16.0,71,0.00,,,0.28,47.000000,,2013-07-19 01:22:00,
2013-07-18 21:52:00,80.0,72.0,-100.00,SW,231,5.0,15.0,77,0.00,,,0.28,4.000000,,2013-07-19 01:52:00,
2013-07-18 22:02:00,80.0,72.0,-100.00,SW,231,5.0,15.0,77,0.00,,,0.28,4.000000,,2013-07-19 02:02:00,
2013-07-18 22:11:00,80.0,72.0,-100.00,SW,231,5.0,15.0,77,0.00,,,0.28,4.000000,,2013-07-19 02:11:00,
2013-07-18 22:22:00,80.0,72.0,-100.00,SW,231,5.0,15.0,77,0.00,,,0.28,4.000000,,2013-07-19 02:22:00,
2013-07-18 22:52:00,79.0,72.0,-100.00,SW,216,5.0,10.0,80,0.00,,,0.28,0.000000,,2013-07-19 02:52:00,
2013-07-18 23:01:00,79.0,72.0,-100.00,SW,216,5.0,10.0,80,0.00,,,0.28,0.000000,,2013-07-19 03:01:00,
2013-07-18 23:11:00,79.0,72.0,-100.00,SW,216,5.0,10.0,80,0.00,,,0.28,0.000000,,2013-07-19 03:11:00,
2013-07-18 23:22:00,79.0,72.0,-100.00,SW,216,5.0,10.0,80,0.00,,,0.28,0.000000,,2013-07-19 03:22:00,
2013-07-18 23:52:00,78.0,71.0,-100.00,SW,223,5.0,11.0,80,0.00,,,0.28,0.000000,,2013-07-19 03:52:00,